When you browse on this site, cookies collect data to enhance your experience and personalize the content and advertising you see.
Visit our Privacy Policy to learn more. By continuing to use the site, you agree to this use of cookies and data.
  • In Hungary
  • List of Countries
  • For 7 days
  • Water Temperature
  • Weather Map
  • News
  • Weather Widgets
  • user-avatar
    Login

    Hourly Weather Blue Mountains National Park

    Today, 22 November, Friday

    Time Temperature Precipitation Wind Pressure Humidity
    00:00 +21°C° 0 mm 2 mps 704 mmHg 42%
    01:00 +21°C° 0 mm 2 mps 704 mmHg 40%
    02:00 +21°C° 0 mm 2 mps 704 mmHg 41%
    03:00 +23°C° 0 mm 2 mps 704 mmHg 41%
    04:00 +23°C° 0 mm 2 mps 704 mmHg 40%
    05:00 +24°C° 0 mm 2 mps 705 mmHg 39%
    06:00 +26°C° 0 mm 2 mps 706 mmHg 38%
    07:00 +27°C° 0 mm 2 mps 707 mmHg 37%
    08:00 +30°C° 0 mm 2 mps 707 mmHg 33%
    09:00 +32°C° 0 mm 2 mps 708 mmHg 29%
    10:00 +35°C° 0 mm 2 mps 708 mmHg 25%
    11:00 +35°C° 0 mm 2 mps 708 mmHg 26%
    12:00 +35°C° 0 mm 2 mps 707 mmHg 26%
    13:00 +35°C° 0 mm 2 mps 707 mmHg 27%
    14:00 +31°C° 0.5 mm 2 mps 707 mmHg 38%
    15:00 +28°C° 0.5 mm 2 mps 707 mmHg 50%
    16:00 +25°C° 0.5 mm 1 mps 707 mmHg 61%
    17:00 +23°C° 0.2 mm 1 mps 707 mmHg 71%
    18:00 +21°C° 0.2 mm 1 mps 707 mmHg 81%
    19:00 +17°C° 0.2 mm 0 mps 707 mmHg 90%
    20:00 +17°C° 0.1 mm 0 mps 707 mmHg 91%
    21:00 +16°C° 0.1 mm 0 mps 707 mmHg 92%
    22:00 +16°C° 0.1 mm 0 mps 707 mmHg 92%
    23:00 +16°C° 0 mm 0 mps 707 mmHg 91%

    Tomorrow, 23 November, Saturday

    Time Temperature Precipitation Wind Pressure Humidity
    00:00 +15°C° 0 mm 0 mps 706 mmHg 91%
    01:00 +15°C° 0 mm 0 mps 706 mmHg 90%
    02:00 +15°C° 0 mm 0 mps 706 mmHg 91%
    03:00 +15°C° 0 mm 0 mps 706 mmHg 92%
    04:00 +15°C° 0 mm 0 mps 706 mmHg 92%
    05:00 +16°C° 0 mm 0 mps 706 mmHg 86%
    06:00 +18°C° 0 mm 0 mps 707 mmHg 79%
    07:00 +20°C° 0 mm 0 mps 708 mmHg 73%
    08:00 +24°C° 0 mm 1 mps 708 mmHg 63%
    09:00 +26°C° 0 mm 2 mps 708 mmHg 53%
    10:00 +29°C° 0 mm 2 mps 708 mmHg 43%
    11:00 +30°C° 0 mm 2 mps 708 mmHg 39%
    12:00 +31°C° 0 mm 3 mps 707 mmHg 34%
    13:00 +34°C° 0 mm 3 mps 707 mmHg 30%
    14:00 +33°C° 0 mm 3 mps 707 mmHg 29%
    15:00 +33°C° 0 mm 3 mps 706 mmHg 27%
    16:00 +33°C° 0 mm 3 mps 706 mmHg 26%
    17:00 +28°C° 0.1 mm 2 mps 706 mmHg 44%
    18:00 +24°C° 0.1 mm 2 mps 707 mmHg 61%
    19:00 +21°C° 0.1 mm 1 mps 707 mmHg 79%
    20:00 +20°C° 0.1 mm 1 mps 707 mmHg 85%
    21:00 +20°C° 0.1 mm 1 mps 708 mmHg 91%
    22:00 +19°C° 0.1 mm 1 mps 708 mmHg 97%
    23:00 +19°C° 0.1 mm 1 mps 708 mmHg 97%

    Day after tomorrow, 24 November, Sunday

    Time Temperature Precipitation Wind Pressure Humidity
    00:00 +18°C° 0.1 mm 1 mps 708 mmHg 97%
    01:00 +18°C° 0.1 mm 1 mps 708 mmHg 97%
    02:00 +16°C° 0 mm 1 mps 708 mmHg 97%
    03:00 +16°C° 0 mm 1 mps 708 mmHg 97%
    04:00 +15°C° 0 mm 1 mps 708 mmHg 96%
    05:00 +15°C° 0 mm 1 mps 709 mmHg 94%
    06:00 +14°C° 0 mm 1 mps 709 mmHg 91%
    07:00 +14°C° 0 mm 1 mps 710 mmHg 89%
    08:00 +16°C° 0 mm 1 mps 710 mmHg 79%
    09:00 +19°C° 0 mm 1 mps 710 mmHg 69%
    10:00 +21°C° 0 mm 1 mps 710 mmHg 59%
    11:00 +23°C° 0 mm 2 mps 709 mmHg 54%
    12:00 +25°C° 0 mm 2 mps 709 mmHg 49%
    13:00 +27°C° 0 mm 2 mps 708 mmHg 45%
    14:00 +26°C° 0 mm 2 mps 708 mmHg 46%
    15:00 +26°C° 0 mm 2 mps 707 mmHg 48%
    16:00 +26°C° 0 mm 2 mps 707 mmHg 49%
    17:00 +24°C° 0.1 mm 2 mps 707 mmHg 61%
    18:00 +20°C° 0.1 mm 2 mps 707 mmHg 73%
    19:00 +18°C° 0.1 mm 1 mps 707 mmHg 85%
    20:00 +18°C° 0.2 mm 1 mps 707 mmHg 89%
    21:00 +16°C° 0.2 mm 1 mps 707 mmHg 93%
    22:00 +15°C° 0.2 mm 0 mps 707 mmHg 97%
    23:00 +15°C° 0 mm 1 mps 706 mmHg 97%

    25 November, Monday

    Time Temperature Precipitation Wind Pressure Humidity
    00:00 +15°C° 0 mm 1 mps 706 mmHg 97%
    01:00 +15°C° 0 mm 1 mps 705 mmHg 98%
    02:00 +14°C° 0 mm 1 mps 705 mmHg 97%
    03:00 +14°C° 0 mm 1 mps 705 mmHg 96%
    04:00 +14°C° 0 mm 1 mps 705 mmHg 95%
    05:00 +16°C° 0 mm 1 mps 705 mmHg 89%
    06:00 +19°C° 0 mm 1 mps 706 mmHg 82%
    07:00 +21°C° 0 mm 1 mps 706 mmHg 76%
    08:00 +24°C° 0 mm 2 mps 706 mmHg 62%
    09:00 +27°C° 0 mm 2 mps 707 mmHg 48%
    10:00 +30°C° 0 mm 3 mps 707 mmHg 34%
    11:00 +31°C° 0 mm 3 mps 706 mmHg 31%
    12:00 +33°C° 0 mm 3 mps 705 mmHg 27%
    13:00 +34°C° 0 mm 3 mps 705 mmHg 24%
    14:00 +33°C° 0 mm 3 mps 704 mmHg 25%
    15:00 +31°C° 0 mm 3 mps 703 mmHg 27%
    16:00 +31°C° 0 mm 3 mps 703 mmHg 28%
    17:00 +29°C° 0 mm 2 mps 703 mmHg 33%
    18:00 +26°C° 0 mm 2 mps 703 mmHg 39%
    19:00 +24°C° 0 mm 1 mps 703 mmHg 44%
    20:00 +23°C° 0 mm 1 mps 703 mmHg 51%
    21:00 +21°C° 0 mm 1 mps 703 mmHg 57%
    22:00 +19°C° 0 mm 2 mps 703 mmHg 64%
    23:00 +18°C° 0 mm 2 mps 702 mmHg 68%

    26 November, Tuesday

    Time Temperature Precipitation Wind Pressure Humidity
    00:00 +18°C° 0 mm 2 mps 702 mmHg 72%
    01:00 +18°C° 0 mm 2 mps 701 mmHg 76%
    02:00 +18°C° 0 mm 2 mps 701 mmHg 73%
    03:00 +18°C° 0 mm 2 mps 701 mmHg 71%
    04:00 +18°C° 0 mm 2 mps 701 mmHg 68%
    05:00 +20°C° 0 mm 3 mps 701 mmHg 60%
    06:00 +23°C° 0 mm 4 mps 701 mmHg 52%
    07:00 +26°C° 0 mm 5 mps 701 mmHg 44%
    08:00 +27°C° 0.4 mm 6 mps 701 mmHg 44%
    09:00 +28°C° 0.4 mm 6 mps 701 mmHg 43%
    10:00 +29°C° 0.4 mm 7 mps 701 mmHg 42%
    11:00 +29°C° 0.6 mm 7 mps 701 mmHg 40%
    12:00 +29°C° 0.6 mm 8 mps 701 mmHg 38%
    13:00 +29°C° 0.6 mm 8 mps 701 mmHg 35%
    14:00 +29°C° 0 mm 7 mps 701 mmHg 30%
    15:00 +29°C° 0 mm 6 mps 701 mmHg 24%
    16:00 +28°C° 0 mm 6 mps 701 mmHg 18%
    17:00 +25°C° 0 mm 4 mps 701 mmHg 21%
    18:00 +20°C° 0 mm 3 mps 702 mmHg 23%
    19:00 +18°C° 0 mm 1 mps 703 mmHg 25%
    20:00 +14°C° 0 mm 1 mps 703 mmHg 39%
    21:00 +12°C° 0 mm 1 mps 704 mmHg 52%
    22:00 +10°C° 0 mm 1 mps 705 mmHg 66%
    23:00 +9°C° 0 mm 1 mps 705 mmHg 73%

    27 November, Wednesday

    Time Temperature Precipitation Wind Pressure Humidity
    00:00 +9°C° 0 mm 1 mps 706 mmHg 80%
    01:00 +8°C° 0 mm 1 mps 706 mmHg 87%
    02:00 +7°C° 0 mm 0 mps 706 mmHg 87%
    03:00 +8°C° 0 mm 0 mps 706 mmHg 87%
    04:00 +8°C° 0 mm 0 mps 707 mmHg 87%
    05:00 +10°C° 0 mm 1 mps 707 mmHg 82%
    06:00 +11°C° 0 mm 1 mps 708 mmHg 76%
    07:00 +13°C° 0 mm 1 mps 708 mmHg 70%
    08:00 +15°C° 0 mm 1 mps 708 mmHg 61%
    09:00 +18°C° 0 mm 1 mps 709 mmHg 53%
    10:00 +19°C° 0 mm 2 mps 709 mmHg 44%
    11:00 +21°C° 0 mm 2 mps 709 mmHg 38%
    12:00 +24°C° 0 mm 2 mps 709 mmHg 33%
    13:00 +26°C° 0 mm 2 mps 709 mmHg 28%
    14:00 +26°C° 0 mm 2 mps 708 mmHg 30%
    15:00 +25°C° 0 mm 2 mps 707 mmHg 31%
    16:00 +25°C° 0 mm 2 mps 707 mmHg 33%
    17:00 +21°C° 0 mm 2 mps 707 mmHg 44%
    18:00 +18°C° 0 mm 2 mps 707 mmHg 56%
    19:00 +16°C° 0 mm 2 mps 707 mmHg 68%
    20:00 +14°C° 0 mm 1 mps 707 mmHg 77%
    21:00 +12°C° 0 mm 1 mps 708 mmHg 86%
    22:00 +10°C° 0 mm 0 mps 708 mmHg 95%
    23:00 +9°C° 0 mm 0 mps 708 mmHg 96%
    Show more